Date,TemperatureHighF,TemperatureAvgF,TemperatureLowF,DewpointHighF,DewpointAvgF,DewpointLowF,HumidityHigh,HumidityAvg,HumidityLow,PressureMaxIn,PressureMinIn,WindSpeedMaxMPH,WindSpeedAvgMPH,GustSpeedMaxMPH,PrecipitationSumIn
2013-1-1,34.3,26.3,18.7,21.9,14.9,8.3,63,59,53,0.00,40.00,0,-999,0,0.00
2013-1-2,35.8,25.9,15.1,18.2,11.8,3.2,57,52,48,0.00,40.00,0,-999,0,0.00
2013-1-3,34.3,25.0,15.3,15.8,9.6,3.3,57,48,43,0.00,40.00,0,-999,0,0.00
2013-1-4,37.1,28.0,22.1,17.2,11.2,6.1,49,46,44,0.00,40.00,0,-999,0,0.00
2013-1-5,36.3,25.4,19.2,18.5,11.5,6.5,57,52,48,0.00,40.00,0,-999,0,0.00
2013-1-6,40.1,31.9,19.9,19.4,14.9,7.1,56,47,42,0.00,40.00,0,-999,0,0.00
2013-1-7,42.1,33.3,23.4,22.3,17.1,10.0,54,49,44,0.00,40.00,0,-999,0,0.00
2013-1-8,47.5,39.2,29.0,24.3,19.2,12.7,51,44,38,0.00,40.00,0,-999,0,0.00
2013-1-9,47.1,40.2,27.9,22.8,19.7,13.4,51,43,38,0.00,40.00,0,-999,0,0.00
2013-1-10,49.1,34.0,20.4,27.0,19.1,10.7,67,54,39,0.00,40.00,0,-999,0,0.00
2013-1-11,20.3,13.4,9.4,10.9,4.2,-0.3,70,63,59,0.00,40.00,0,-999,0,0.00
2013-1-12,19.2,11.1,2.4,7.7,1.1,-7.0,61,60,56,0.00,40.00,0,-999,0,0.00
2013-1-13,21.9,12.6,7.0,10.4,2.1,-2.5,61,59,55,0.00,40.00,0,-999,0,0.00
2013-1-14,21.2,15.9,8.6,8.3,3.9,-2.0,58,55,51,0.00,40.00,0,-999,0,0.00
2013-1-15,31.7,24.4,18.7,19.0,13.1,6.6,61,58,54,0.00,40.00,0,-999,0,0.00
2013-1-16,40.5,31.7,24.8,23.3,17.9,13.5,58,54,49,0.00,40.00,0,-999,0,0.00
2013-1-17,42.3,32.3,24.1,24.5,17.4,12.5,58,52,47,0.00,40.00,0,-999,0,0.00
2013-1-18,52.4,38.3,31.6,27.6,19.6,15.6,51,47,38,0.00,40.00,0,-999,0,0.00
2013-1-19,40.9,33.2,25.5,23.1,18.5,14.3,65,53,47,0.00,40.00,0,-999,0,0.00
2013-1-21,24.6,21.4,18.2,13.3,10.7,8.4,62,59,58,0.00,40.00,0,-999,0,0.00
2013-1-22,45.0,29.7,16.0,26.0,15.9,6.7,66,55,45,0.00,40.00,0,-999,0,0.00
2013-1-23,31.8,24.3,18.5,17.5,12.9,10.2,67,58,50,0.00,40.00,0,-999,0,0.00
2013-1-24,51.2,35.4,21.4,31.1,20.3,11.9,64,53,43,0.00,40.00,0,-999,0,0.00
2013-2-4,53.1,47.0,41.2,30.1,24.9,21.8,46,42,39,0.00,40.00,0,-999,0,0.00
2013-2-5,50.7,40.3,31.5,29.4,22.8,17.7,56,49,42,0.00,40.00,0,-999,0,0.00
2013-2-6,54.5,39.1,28.7,29.5,19.9,12.0,65,46,37,0.00,40.00,0,-999,0,0.00
2013-2-7,46.0,33.8,22.5,23.1,16.3,10.2,57,47,39,0.00,40.00,0,-999,0,0.00
2013-2-8,43.9,33.6,25.3,23.4,17.3,12.9,57,50,39,0.00,40.00,0,-999,0,0.00
2013-2-9,44.1,32.6,21.9,26.4,18.7,11.4,72,55,44,0.00,40.00,0,-999,0,0.00
2013-2-10,32.0,27.5,17.6,24.4,17.9,9.5,76,64,52,0.00,40.00,0,-999,0,0.00
2013-2-11,34.2,23.7,13.1,18.9,11.7,4.9,68,57,50,0.00,40.00,0,-999,0,0.00
2013-2-12,42.3,30.2,21.2,21.7,14.3,8.6,55,49,43,0.00,40.00,0,-999,0,0.00
2013-2-13,52.7,36.5,29.7,29.0,23.4,14.3,89,59,39,0.00,40.00,0,-999,0,0.00
2013-2-14,36.5,30.8,27.3,26.3,19.1,16.5,86,60,48,0.00,40.00,0,-999,0,0.00
2013-2-15,42.7,32.9,25.9,29.5,22.5,18.8,74,64,55,0.00,40.00,0,-999,0,0.00
2013-2-16,51.6,38.5,27.2,31.5,23.1,17.1,63,53,44,0.00,40.00,0,-999,0,0.00
2013-2-17,49.7,38.3,33.1,27.4,21.9,18.8,59,51,40,0.00,40.00,0,-999,0,0.00
2013-2-18,40.6,31.4,22.6,23.9,18.6,12.3,69,57,50,0.00,40.00,0,-999,0,0.00
2013-2-19,32.0,24.3,13.9,19.5,14.4,5.7,75,62,54,0.00,40.00,0,-999,0,0.00
2013-2-20,33.7,29.1,24.3,20.5,16.1,13.7,64,56,50,0.00,40.00,0,-999,0,0.00
2013-2-21,39.2,30.0,23.5,26.4,19.5,14.3,72,63,52,0.00,40.00,0,-999,0,0.00
2013-2-22,44.9,33.8,25.2,26.3,17.9,13.9,63,52,39,0.00,40.00,0,-999,0,0.00
2013-2-23,40.5,34.6,31.0,26.4,20.0,14.2,70,55,43,0.00,40.00,0,-999,0,0.00
2013-2-24,49.6,35.5,28.0,28.1,19.0,13.3,63,50,40,0.00,40.00,0,-999,0,0.00
2013-2-25,49.4,37.5,26.8,24.3,17.7,12.4,52,44,35,0.00,40.00,0,-999,0,0.00
2013-2-26,49.3,37.7,30.0,24.7,16.8,13.2,48,42,37,0.00,40.00,0,-999,0,0.00
2013-2-27,48.7,35.4,21.6,24.1,16.2,9.0,54,45,36,0.00,40.00,0,-999,0,0.00
2013-2-28,50.6,38.3,30.4,25.9,16.8,11.7,44,41,37,0.00,40.00,0,-999,0,0.00
2013-3-1,60.4,44.5,31.5,33.2,22.0,12.7,46,41,35,0.00,40.00,0,-999,0,0.00
2013-3-2,65.5,48.7,36.9,35.9,26.0,19.6,50,41,32,0.00,40.00,0,-999,0,0.00
2013-3-3,55.4,38.7,28.0,31.4,22.8,14.7,65,52,39,0.00,40.00,0,-999,0,0.00
2013-3-4,32.9,25.0,16.7,15.8,11.2,4.7,55,52,44,0.00,40.00,0,-999,0,0.00
2013-3-5,33.5,23.4,12.9,19.5,11.7,2.2,71,57,50,0.00,40.00,0,-999,0,0.00
2013-3-6,37.1,28.8,18.4,23.5,17.8,9.7,69,62,53,0.00,40.00,0,-999,0,0.00
2013-3-7,57.9,39.9,26.1,35.7,24.7,18.5,73,56,32,0.00,40.00,0,-999,0,0.00
2013-3-8,47.0,39.2,32.7,28.9,24.0,19.7,65,55,45,0.00,40.00,0,-999,0,0.00
2013-3-9,49.1,36.4,25.2,28.8,19.7,12.2,67,51,35,0.00,40.00,0,-999,0,0.00
2013-3-10,57.9,41.2,21.9,30.4,20.2,9.7,56,43,32,0.00,40.00,0,-999,0,0.00
2013-3-11,49.2,39.9,33.1,24.5,18.6,12.7,50,42,34,0.00,40.00,0,-999,0,0.00
2013-3-12,50.2,36.6,23.9,26.2,19.2,13.0,60,49,37,0.00,40.00,0,-999,0,0.00
2013-3-13,70.0,51.2,32.5,38.9,25.9,16.1,51,38,28,0.00,40.00,0,-999,0,0.00
2013-3-14,72.0,53.6,36.7,40.4,27.5,18.4,50,37,27,0.00,40.00,0,-999,0,0.00
2013-3-15,71.3,52.1,36.6,37.2,26.5,21.3,63,38,25,0.00,40.00,0,-999,0,0.00
2013-3-16,51.1,38.2,27.8,29.9,23.3,18.7,75,55,39,0.00,40.00,0,-999,0,0.00
2013-3-17,44.2,35.6,24.4,25.9,18.3,7.6,67,49,36,0.00,40.00,0,-999,0,0.00
2013-3-18,50.2,31.8,18.4,24.4,11.6,4.0,52,42,32,0.00,40.00,0,-999,0,0.00
2013-3-19,40.8,32.0,25.7,24.3,16.5,11.9,75,51,41,0.00,40.00,0,-999,0,0.00
2013-3-20,58.0,38.5,21.2,31.1,18.4,9.0,57,44,31,0.00,40.00,0,-999,0,0.00
2013-3-21,50.6,41.8,33.2,25.3,19.3,7.8,59,41,31,0.00,40.00,0,-999,0,0.00
2013-3-22,37.9,28.2,21.1,24.8,12.4,2.5,75,49,34,0.00,40.00,0,-999,0,0.00
2013-3-23,42.4,27.5,15.3,19.5,9.7,4.1,57,45,33,0.00,40.00,0,-999,0,0.00
2013-3-24,37.5,25.5,15.4,15.2,7.6,2.0,53,44,33,0.00,40.00,0,-999,0,0.00
2013-3-25,51.7,32.0,12.7,25.6,10.2,-1.2,50,39,29,0.00,40.00,0,-999,0,0.00
2013-3-26,41.0,32.1,26.6,13.8,9.2,6.7,39,35,32,0.00,40.00,0,-999,0,0.00
2013-3-27,64.5,46.1,25.2,31.5,19.1,7.4,43,34,26,0.00,40.00,0,-999,0,0.00
2013-3-28,69.6,49.5,30.7,37.5,22.2,11.4,43,34,27,0.00,40.00,0,-999,0,0.00
2013-3-29,66.8,50.9,38.8,36.8,26.9,17.0,54,40,32,0.00,40.00,0,-999,0,0.00
2013-3-30,65.3,51.4,38.8,37.4,27.7,19.1,56,41,30,0.00,40.00,0,-999,0,0.00
2013-3-31,65.8,46.9,33.0,34.4,20.8,13.8,46,36,28,0.00,40.00,0,-999,0,0.00
2013-4-1,63.1,45.7,28.9,33.8,20.7,13.7,49,37,28,0.00,40.00,0,-999,0,0.00
2013-4-2,68.2,50.4,29.7,36.1,22.8,11.7,45,34,24,0.00,40.00,0,-999,0,0.00
2013-4-3,74.7,61.2,45.5,38.0,30.2,23.8,45,32,24,0.00,40.00,0,-999,0,0.00
2013-4-4,57.9,49.0,39.4,31.0,26.3,21.0,52,42,35,0.00,40.00,0,-999,0,0.00
2013-4-5,59.7,52.6,45.1,40.2,31.7,24.6,57,45,39,0.00,40.00,0,-999,0,0.00
2013-4-6,68.8,53.2,38.5,39.8,30.7,22.5,53,43,30,0.00,40.00,0,-999,0,0.00
2013-4-7,63.5,49.8,35.4,41.7,34.6,29.3,98,58,37,0.00,40.00,0,-999,0,0.00
2013-4-8,35.4,25.3,21.7,34.7,20.0,16.3,99,78,68,0.00,40.00,0,-999,0,0.00
2013-4-9,34.2,26.1,19.6,20.0,15.7,12.5,82,62,44,0.00,40.00,0,-999,0,0.00
2013-4-10,49.3,34.6,17.6,28.9,19.8,8.9,66,54,43,0.00,40.00,0,-999,0,0.00
2013-4-11,62.2,49.9,37.4,37.7,29.3,20.5,59,45,37,0.00,40.00,0,-999,0,0.00
2013-4-12,58.2,45.1,35.6,35.5,25.6,18.7,65,47,32,0.00,40.00,0,-999,0,0.00
2013-4-13,54.6,40.8,37.4,33.2,26.1,18.6,76,56,43,0.00,40.00,0,-999,0,0.00
2013-4-14,40.8,34.3,24.4,27.2,21.1,17.8,78,59,47,0.00,40.00,0,-999,0,0.00
2013-4-15,37.4,29.1,21.6,23.1,18.6,14.2,80,63,49,0.00,40.00,0,-999,0,0.00
2013-4-16,33.1,28.4,24.4,22.9,19.5,15.5,80,67,51,0.00,40.00,0,-999,0,0.00
2013-4-17,39.8,29.5,20.3,25.7,19.7,14.4,80,66,47,0.00,40.00,0,-999,0,0.00
2013-4-18,57.9,39.8,20.0,35.9,23.5,12.7,74,54,37,0.00,40.00,0,-999,0,0.00
2013-4-19,61.7,49.3,35.1,36.7,28.8,18.8,68,46,36,0.00,40.00,0,-999,0,0.00
2013-4-20,61.4,49.2,36.2,40.5,33.3,27.7,74,56,36,0.00,40.00,0,-999,0,0.00
2013-4-21,47.7,34.8,28.4,31.6,28.1,24.8,100,78,48,0.00,40.00,0,-999,0,0.00
2013-4-22,38.6,30.9,25.3,26.0,21.6,17.6,90,69,48,0.00,40.00,0,-999,0,0.00
2013-4-23,53.0,38.1,21.4,29.7,21.4,12.5,68,52,37,0.00,40.00,0,-999,0,0.00
2013-4-24,60.4,51.6,38.6,33.8,27.3,21.8,53,39,33,0.00,40.00,0,-999,0,0.00
2013-4-25,74.0,56.6,37.0,39.7,26.9,17.5,46,33,24,0.00,40.00,0,-999,0,0.00
2013-4-26,78.6,60.9,41.4,42.0,28.8,20.6,45,31,23,0.00,40.00,0,-999,0,0.00
2013-4-27,83.1,64.4,47.1,40.5,29.4,20.6,39,28,20,0.00,40.00,0,-999,0,0.00
2013-4-29,71.1,54.5,44.8,39.0,30.4,19.5,49,40,28,0.00,40.00,0,-999,0,0.00
2013-4-30,56.1,42.7,33.3,28.0,18.9,12.9,48,38,31,0.00,40.00,0,-999,0,0.00
2013-5-1,55.7,42.0,29.0,28.6,19.3,13.0,56,40,29,0.00,40.00,0,-999,0,0.00
2013-5-2,67.3,51.6,32.4,34.4,23.0,13.4,50,34,24,0.00,40.00,0,-999,0,0.00
2013-5-3,71.4,56.3,45.9,38.4,26.2,15.9,68,33,25,0.00,40.00,0,-999,0,0.00
2013-5-4,63.1,52.9,46.9,43.9,36.7,29.6,70,55,40,0.00,40.00,0,-999,0,0.00
2013-5-5,73.2,56.0,37.4,43.5,32.1,25.0,67,43,27,0.00,40.00,0,-999,0,0.00
2013-5-6,78.4,61.1,41.0,42.1,29.8,20.1,44,31,23,0.00,40.00,0,-999,0,0.00
2013-5-7,79.2,63.6,45.9,35.7,29.1,24.8,44,28,20,0.00,40.00,0,-999,0,0.00
2013-5-8,76.1,63.7,49.6,41.8,35.1,26.4,47,35,25,0.00,40.00,0,-999,0,0.00
2013-5-9,63.9,59.6,56.0,40.7,39.5,38.6,52,48,42,0.00,40.00,0,-999,0,0.00
2013-5-10,76.0,64.0,50.3,43.1,32.9,21.3,61,33,25,0.00,40.00,0,-999,0,0.00
2013-5-11,77.0,62.0,41.7,38.0,30.7,19.8,44,32,24,0.00,40.00,0,-999,0,0.00
2013-5-12,92.7,73.9,57.0,48.5,38.7,31.8,40,29,19,0.00,40.00,0,-999,0,0.00
2013-5-13,92.3,75.7,59.4,50.1,40.8,34.6,47,30,18,0.00,40.00,0,-999,0,0.00
2013-5-14,85.1,70.6,57.4,43.9,36.6,25.5,51,30,21,0.00,40.00,0,-999,0,0.00
2013-5-15,74.8,67.6,57.4,34.2,29.8,21.9,32,24,22,0.00,40.00,0,-999,0,0.00
2013-5-16,73.5,61.9,55.9,50.6,42.7,34.5,79,51,33,0.00,40.00,0,-999,0,0.00
2013-5-17,65.9,57.8,54.0,54.5,49.9,46.0,88,75,64,0.00,40.00,0,-999,0,0.00
2013-5-18,61.7,56.6,53.6,55.4,52.3,49.8,91,86,76,0.00,40.00,0,-999,0,0.00
2013-5-19,55.4,53.6,52.5,52.9,51.3,50.3,93,92,90,0.00,40.00,0,-999,0,0.00
2013-5-20,54.3,53.7,53.0,41.1,40.5,39.9,64,61,58,0.00,40.00,0,-999,0,0.00
2013-5-21,74.5,57.7,43.3,51.8,39.6,31.0,77,54,28,0.00,40.00,0,-999,0,0.00
2013-5-22,67.8,56.6,46.2,45.6,42.7,39.1,84,61,44,0.00,40.00,0,-999,0,0.00
2013-5-23,71.6,61.4,53.8,53.0,46.2,42.1,75,59,40,0.00,40.00,0,-999,0,0.00
2013-5-24,75.7,63.5,52.0,50.8,41.9,31.9,82,49,26,0.00,40.00,0,-999,0,0.00
2013-5-25,80.3,64.8,48.1,47.8,38.4,31.0,55,39,30,0.00,40.00,0,-999,0,0.00
2013-5-26,75.9,63.4,53.2,53.1,45.0,35.5,69,52,38,0.00,40.00,0,-999,0,0.00
2013-5-27,74.5,58.6,51.6,54.0,46.2,41.8,74,64,46,0.00,40.00,0,-999,0,0.00
2013-5-28,74.7,60.4,48.4,54.4,46.4,42.9,82,62,41,0.00,40.00,0,-999,0,0.00
2013-5-29,58.4,55.0,53.6,52.7,50.0,46.5,90,83,68,0.00,40.00,0,-999,0,0.00
2013-5-30,58.4,53.1,50.5,52.3,49.1,46.2,92,86,76,0.00,40.00,0,-999,0,0.00
2013-5-31,58.0,52.6,48.7,46.2,43.7,42.0,84,72,60,0.00,40.00,0,-999,0,0.00
2013-6-1,74.7,61.0,46.9,54.4,44.8,40.5,86,58,36,0.00,40.00,0,-999,0,0.00
2013-6-2,78.9,66.0,53.2,53.1,46.3,41.0,70,51,33,0.00,40.00,0,-999,0,0.00
2013-6-3,66.3,55.0,48.1,48.1,40.7,34.4,74,59,45,0.00,40.00,0,-999,0,0.00
2013-6-4,56.4,50.0,43.0,41.4,37.0,33.8,71,61,50,0.00,40.00,0,-999,0,0.00
2013-6-5,73.0,58.1,39.0,49.1,39.2,32.0,77,53,32,0.00,40.00,0,-999,0,0.00
2013-6-6,83.3,66.3,48.4,55.1,44.7,36.8,66,47,30,0.00,40.00,0,-999,0,0.00
2013-6-7,87.3,70.1,52.9,59.3,49.2,43.9,73,50,31,0.00,40.00,0,-999,0,0.00
2013-6-8,83.2,70.4,61.7,52.2,44.2,40.6,50,40,30,0.00,40.00,0,-999,0,0.00
2013-6-9,86.5,71.6,52.3,53.8,46.3,40.3,65,43,29,0.00,40.00,0,-999,0,0.00
2013-6-10,79.8,68.8,55.4,51.4,45.5,40.3,61,44,30,0.00,40.00,0,-999,0,0.00
2013-6-11,81.0,67.5,58.8,60.8,53.8,49.8,79,63,48,0.00,40.00,0,-999,0,0.00
2013-6-12,72.3,64.6,55.6,59.3,55.6,50.3,84,73,62,0.00,40.00,0,-999,0,0.00
2013-6-13,79.8,66.8,56.5,56.8,52.4,47.1,73,61,38,0.00,40.00,0,-999,0,0.00
2013-6-14,77.3,62.3,50.7,53.5,43.8,35.6,75,53,35,0.00,40.00,0,-999,0,0.00
2013-6-15,76.8,64.4,49.3,41.4,37.9,34.4,58,39,27,0.00,40.00,0,-999,0,0.00
2013-6-16,80.8,68.1,52.5,51.8,42.7,37.4,60,41,28,0.00,40.00,0,-999,0,0.00
2013-6-17,79.5,72.9,62.0,50.0,48.3,43.0,53,42,33,0.00,40.00,0,-999,0,0.00
2013-6-18,85.1,73.7,65.7,50.2,48.2,46.3,56,41,30,0.00,40.00,0,-999,0,0.00
2013-6-19,87.9,77.0,65.2,54.9,48.2,36.8,48,37,31,0.00,40.00,0,-999,0,0.00
2013-6-20,81.1,67.3,52.9,44.3,35.0,28.8,44,31,23,0.00,40.00,0,-999,0,0.00
2013-6-21,73.2,64.6,56.3,48.2,43.1,33.7,66,47,33,0.00,40.00,0,-999,0,0.00
2013-6-22,73.0,60.4,54.3,56.2,48.0,43.2,82,65,47,0.00,40.00,0,-999,0,0.00
2013-6-23,81.0,66.4,49.5,54.6,46.3,41.9,75,51,33,0.00,40.00,0,-999,0,0.00
2013-6-24,84.8,71.8,56.5,55.5,49.1,42.3,63,46,30,0.00,40.00,0,-999,0,0.00
2013-6-25,88.1,75.9,64.0,56.3,48.1,43.3,63,39,26,0.00,40.00,0,-999,0,0.00
2013-6-26,71.0,66.3,64.4,50.1,45.8,42.6,61,48,37,0.00,40.00,0,-999,0,0.00
2013-7-1,94.5,85.9,71.5,63.2,55.3,51.0,61,36,29,0.00,40.00,0,-999,0,0.00
2013-7-2,96.2,80.8,64.4,63.0,53.5,47.8,66,41,27,0.00,40.00,0,-999,0,0.00
2013-7-3,99.9,82.1,65.9,63.2,51.6,45.8,58,37,20,0.00,40.00,0,-999,0,0.00
2013-7-4,91.8,80.3,70.9,66.4,58.0,48.4,71,48,29,0.00,40.00,0,-999,0,0.00
2013-7-5,84.1,72.7,64.6,61.3,56.1,53.0,73,57,42,0.00,40.00,0,-999,0,0.00
2013-7-6,86.6,73.1,62.1,60.8,54.0,48.4,81,54,32,0.00,40.00,0,-999,0,0.00
2013-7-7,87.3,72.9,61.8,60.7,54.1,49.3,71,53,35,0.00,40.00,0,-999,0,0.00
2013-7-8,91.3,73.1,62.0,61.4,55.7,49.8,82,57,31,0.00,40.00,0,-999,0,0.00
2013-7-9,86.8,73.5,61.2,65.8,55.3,47.6,82,56,32,0.00,40.00,0,-999,0,0.00
2013-7-10,94.4,86.7,73.4,64.8,51.4,43.1,54,31,20,0.00,40.00,0,-999,0,0.00
2013-7-11,98.1,80.6,66.9,60.2,50.0,44.1,52,36,24,0.00,40.00,0,-999,0,0.00
2013-7-12,92.9,86.4,74.3,55.7,48.9,44.9,41,28,22,0.00,40.00,0,-999,0,0.00
2013-7-13,91.5,73.7,61.2,60.8,52.0,46.4,65,48,30,0.00,40.00,0,-999,0,0.00
2013-7-14,86.8,74.2,60.4,53.5,50.0,47.5,68,45,30,0.00,40.00,0,-999,0,0.00
2013-7-15,96.9,80.2,62.3,65.1,51.8,41.5,69,42,18,0.00,40.00,0,-999,0,0.00
2013-7-16,80.3,66.6,62.0,52.7,46.6,41.6,67,49,30,0.00,40.00,0,-999,0,0.00
2013-7-17,80.1,70.2,61.7,62.8,57.2,51.1,76,64,51,0.00,40.00,0,-999,0,0.00
2013-7-18,96.0,78.8,61.7,65.6,51.4,39.4,75,44,18,0.00,40.00,0,-999,0,0.00
2013-7-19,93.7,79.0,61.6,56.4,45.1,36.3,51,32,20,0.00,40.00,0,-999,0,0.00
2013-7-20,90.0,72.0,60.4,54.0,44.3,35.0,51,38,24,0.00,40.00,0,-999,0,0.00
2013-7-21,92.8,84.5,73.4,54.4,44.2,40.5,41,25,18,0.00,40.00,0,-999,0,0.00
2013-7-22,94.3,79.9,64.3,56.5,45.9,35.1,51,32,18,0.00,40.00,0,-999,0,0.00
2013-7-23,93.4,77.9,61.9,56.8,46.2,34.6,49,34,23,0.00,40.00,0,-999,0,0.00
2013-7-24,96.2,80.4,66.2,57.4,48.1,41.6,52,34,20,0.00,40.00,0,-999,0,0.00
2013-7-25,84.2,74.4,63.5,55.7,50.7,47.3,66,45,32,0.00,40.00,0,-999,0,0.00
2013-7-26,84.3,72.0,57.4,56.6,48.5,42.9,63,45,33,0.00,40.00,0,-999,0,0.00
2013-7-27,87.9,74.1,60.5,55.7,48.6,41.8,56,42,28,0.00,40.00,0,-999,0,0.00
2013-7-28,71.5,66.4,63.5,51.2,49.7,48.8,62,55,48,0.00,40.00,0,-999,0,0.00
2013-8-7,84.9,76.2,67.1,48.9,47.3,43.8,49,37,25,0.00,40.00,0,-999,0,0.00
2013-8-8,83.0,71.8,59.0,55.9,49.5,46.3,64,47,33,0.00,40.00,0,-999,0,0.00
2013-8-9,79.9,68.5,61.2,57.2,52.1,45.6,72,56,42,0.00,40.00,0,-999,0,0.00
2013-8-10,64.6,62.6,59.8,55.5,54.8,53.6,80,76,72,0.00,40.00,0,-999,0,0.00
2013-8-18,92.4,82.5,64.0,55.3,49.6,44.9,51,33,25,0.00,40.00,0,-999,0,0.00
2013-8-19,96.6,82.6,64.6,57.3,46.2,35.6,54,30,18,0.00,40.00,0,-999,0,0.00
2013-8-20,95.0,77.1,60.6,53.4,43.0,38.3,46,31,19,0.00,40.00,0,-999,0,0.00
2013-8-21,87.5,76.0,62.2,49.7,43.4,38.8,45,32,23,0.00,40.00,0,-999,0,0.00
2013-8-22,88.6,77.0,62.4,55.9,49.4,41.5,49,39,30,0.00,40.00,0,-999,0,0.00
2013-8-23,96.8,78.8,64.8,60.7,51.2,44.3,62,41,20,0.00,40.00,0,-999,0,0.00
2013-8-24,90.6,76.2,69.0,60.1,51.1,45.1,58,43,29,0.00,40.00,0,-999,0,0.00
2013-8-25,91.4,78.0,65.3,59.3,48.8,41.1,58,38,21,0.00,40.00,0,-999,0,0.00
2013-8-26,97.8,81.8,69.5,57.1,48.2,43.3,49,32,19,0.00,40.00,0,-999,0,0.00
2013-8-27,93.3,79.2,67.5,54.7,48.3,43.1,46,34,23,0.00,40.00,0,-999,0,0.00
2013-8-28,90.7,79.8,72.0,53.7,50.2,48.1,45,36,28,0.00,40.00,0,-999,0,0.00
2013-8-29,93.3,75.1,61.5,60.4,52.6,49.1,67,48,28,0.00,40.00,0,-999,0,0.00
2013-8-30,92.9,77.7,62.1,63.5,52.5,43.6,68,45,23,0.00,40.00,0,-999,0,0.00
2013-8-31,86.8,74.9,64.2,50.5,43.9,36.9,47,34,25,0.00,40.00,0,-999,0,0.00
2013-9-1,85.6,71.9,55.9,49.5,42.0,34.5,48,35,27,0.00,40.00,0,-999,0,0.00
2013-9-2,88.6,72.0,56.8,57.8,48.9,40.8,62,45,30,0.00,40.00,0,-999,0,0.00
2013-9-3,92.5,78.1,64.2,62.1,54.1,46.8,68,46,28,0.00,40.00,0,-999,0,0.00
2013-9-4,92.2,79.2,69.6,60.8,53.6,48.1,54,42,29,0.00,40.00,0,-999,0,0.00
2013-9-5,92.8,76.9,62.4,64.3,56.4,53.0,72,51,30,0.00,40.00,0,-999,0,0.00
2013-9-6,92.6,75.4,64.0,65.2,58.6,54.0,71,57,35,0.00,40.00,0,-999,0,0.00
2013-9-7,89.4,73.4,55.9,65.4,58.3,49.3,97,62,32,0.00,40.00,0,-999,0,0.00
2013-9-8,77.3,66.0,58.1,70.3,61.7,58.0,100,88,61,0.00,40.00,0,-999,0,0.00
2013-9-9,81.6,69.9,56.8,58.1,50.3,46.3,86,51,43,0.00,40.00,0,-999,0,0.00
2013-9-10,83.8,67.5,53.8,59.3,47.5,40.9,75,52,30,0.00,40.00,0,-999,0,0.00
2013-9-11,77.5,61.6,57.2,54.5,43.5,41.7,58,51,45,0.00,40.00,0,-999,0,0.00
2013-9-16,69.3,67.2,65.8,53.2,52.5,51.9,62,59,56,0.00,40.00,0,-999,0,0.00
2013-9-17,73.7,65.7,58.8,58.1,54.0,50.8,79,66,50,0.00,40.00,0,-999,0,0.00
2013-9-18,62.8,58.2,55.3,45.1,41.8,39.9,58,54,51,0.00,40.00,0,-999,0,0.00
2013-9-19,66.5,56.1,49.1,46.5,39.3,35.1,61,54,41,0.00,40.00,0,-999,0,0.00
2013-9-20,74.6,58.1,42.5,51.7,40.8,34.8,75,55,35,0.00,40.00,0,-999,0,0.00
2013-9-21,84.7,72.3,59.2,49.4,43.6,39.0,47,36,28,0.00,40.00,0,-999,0,0.00
2013-9-22,76.6,64.9,57.1,48.5,41.6,38.1,57,43,33,0.00,40.00,0,-999,0,0.00
2013-9-23,69.6,62.2,53.1,37.7,34.1,31.5,45,35,30,0.00,40.00,0,-999,0,0.00
2013-9-24,72.9,67.1,52.7,43.4,39.3,32.1,46,36,33,0.00,40.00,0,-999,0,0.00
2013-9-25,56.3,51.3,47.8,47.2,41.0,33.9,93,69,45,0.00,40.00,0,-999,0,0.00
2013-9-26,50.4,46.5,41.2,46.6,38.6,34.6,97,75,60,0.00,40.00,0,-999,0,0.00
2013-9-27,57.2,47.8,42.4,43.2,37.3,34.1,81,68,53,0.00,40.00,0,-999,0,0.00
2013-9-28,66.5,54.0,42.1,45.0,37.8,33.3,72,56,39,0.00,40.00,0,-999,0,0.00
2013-9-29,74.2,59.4,48.6,43.1,37.4,32.7,55,45,31,0.00,40.00,0,-999,0,0.00
2013-9-30,75.5,54.3,45.1,49.0,35.8,28.1,70,51,36,0.00,40.00,0,-999,0,0.00
2013-10-1,68.4,55.4,40.1,39.4,31.0,22.8,52,40,33,0.00,40.00,0,-999,0,0.00
2013-10-2,63.9,53.4,45.1,39.5,32.7,28.3,77,46,34,0.00,40.00,0,-999,0,0.00
2013-10-3,46.4,39.5,34.9,43.1,37.6,34.0,99,93,78,0.00,40.00,0,-999,0,0.00
2013-10-4,45.3,38.7,33.1,35.8,32.3,26.1,94,78,58,0.00,40.00,0,-999,0,0.00
2013-10-5,55.9,42.2,29.9,38.7,30.9,24.3,77,65,50,0.00,40.00,0,-999,0,0.00
2013-10-6,65.6,52.4,40.8,42.5,34.9,28.8,63,52,38,0.00,40.00,0,-999,0,0.00
2013-10-7,64.9,53.5,40.5,44.0,37.0,29.6,68,54,41,0.00,40.00,0,-999,0,0.00
2013-10-8,61.0,52.5,42.4,40.3,34.3,28.8,66,51,37,0.00,40.00,0,-999,0,0.00
2013-10-9,51.3,44.5,39.4,37.0,32.9,28.3,70,64,58,0.00,40.00,0,-999,0,0.00
2013-10-10,51.2,40.8,37.2,40.7,33.1,30.4,77,74,67,0.00,40.00,0,-999,0,0.00
2013-10-16,47.8,42.8,38.8,34.5,32.2,31.3,75,66,53,0.00,40.00,0,-999,0,0.00
2013-10-17,46.4,40.9,37.6,37.2,33.5,30.8,82,75,66,0.00,40.00,0,-999,0,0.00
2013-10-18,57.0,45.3,33.8,40.1,32.4,27.4,78,62,46,0.00,40.00,0,-999,0,0.00
2013-10-19,62.2,49.7,36.1,40.5,31.5,24.0,63,50,41,0.00,40.00,0,-999,0,0.00
2013-10-20,58.1,49.6,43.7,37.5,32.5,29.5,60,52,43,0.00,40.00,0,-999,0,0.00
2013-10-21,61.7,51.4,42.4,42.1,35.5,31.4,66,55,45,0.00,40.00,0,-999,0,0.00
2013-10-22,64.4,50.7,38.6,44.0,35.3,28.7,69,56,43,0.00,40.00,0,-999,0,0.00
2013-10-23,60.6,46.8,36.0,42.1,34.5,27.8,73,63,48,0.00,40.00,0,-999,0,0.00
2013-10-24,56.7,45.2,34.7,42.2,35.3,27.9,78,69,56,0.00,40.00,0,-999,0,0.00
2013-10-25,66.8,50.2,37.8,48.0,35.7,28.9,79,60,33,0.00,40.00,0,-999,0,0.00
2013-10-26,66.0,49.2,34.0,44.6,33.0,24.8,73,55,36,0.00,40.00,0,-999,0,0.00
2013-10-27,62.2,46.2,35.4,40.9,29.5,24.8,71,54,30,0.00,40.00,0,-999,0,0.00
2013-10-28,36.3,29.2,24.6,32.5,26.6,21.3,100,90,71,0.00,40.00,0,-999,0,0.00
2013-10-29,34.6,29.8,25.7,26.8,24.5,22.3,91,79,70,0.00,40.00,0,-999,0,0.00
2013-10-30,48.2,35.1,23.5,37.3,28.2,18.6,84,75,64,0.00,40.00,0,-999,0,0.00
2013-10-31,56.3,44.7,33.8,40.4,32.5,27.4,80,63,50,0.00,40.00,0,-999,0,0.00
2013-11-1,58.4,46.0,35.6,36.1,27.6,21.4,56,49,41,0.00,40.00,0,-999,0,0.00
2013-11-2,56.7,42.3,30.4,36.5,27.6,19.9,67,56,45,0.00,40.00,0,-999,0,0.00
2013-11-3,49.5,42.1,33.5,31.9,26.4,18.0,69,54,41,0.00,40.00,0,-999,0,0.00
2013-11-4,39.9,33.0,30.0,26.5,21.9,17.0,75,62,53,0.00,40.00,0,-999,0,0.00
2013-11-5,41.2,33.1,26.6,27.7,22.3,18.2,76,64,48,0.00,40.00,0,-999,0,0.00
2013-11-6,48.8,39.2,31.1,30.3,23.4,17.6,61,53,43,0.00,40.00,0,-999,0,0.00
2013-11-7,50.8,41.4,32.0,31.6,26.1,19.1,62,54,46,0.00,40.00,0,-999,0,0.00
2013-11-8,52.2,46.4,40.3,31.8,26.9,23.6,60,47,39,0.00,40.00,0,-999,0,0.00
2013-11-9,50.2,40.9,34.7,28.0,21.9,18.9,53,47,39,0.00,40.00,0,-999,0,0.00
2013-11-10,47.4,37.1,27.9,29.6,24.1,19.7,78,60,44,0.00,40.00,0,-999,0,0.00
2013-11-11,32.2,25.5,20.9,23.6,18.8,14.9,78,73,67,0.00,40.00,0,-999,0,0.00
2013-11-12,55.6,38.5,19.0,39.9,26.6,13.2,78,63,44,0.00,40.00,0,-999,0,0.00
2013-11-13,50.7,50.5,50.2,31.2,31.0,30.7,47,47,47,0.00,40.00,0,-999,0,0.00
2013-11-19,60.6,50.7,34.3,32.8,27.2,15.8,48,40,35,0.00,40.00,0,-999,0,0.00
2013-11-20,33.0,17.5,11.6,16.4,8.2,1.6,74,63,50,0.00,40.00,0,-999,0,0.00
2013-11-21,21.4,13.3,2.2,9.4,2.6,-7.5,60,58,55,0.00,40.00,0,-999,0,0.00
2013-11-22,32.5,23.2,15.5,17.2,10.0,4.0,58,53,49,0.00,40.00,0,-999,0,0.00
2013-11-23,36.7,25.6,13.6,17.2,10.2,2.5,57,49,43,0.00,40.00,0,-999,0,0.00
2013-11-24,44.2,33.3,24.8,22.9,16.2,9.9,54,47,42,0.00,40.00,0,-999,0,0.00
2013-11-25,41.9,31.4,24.6,24.5,18.2,13.4,63,56,48,0.00,40.00,0,-999,0,0.00
2013-11-26,43.7,35.5,26.8,26.3,21.8,17.3,65,56,50,0.00,40.00,0,-999,0,0.00
2013-11-27,52.4,40.5,29.8,30.1,22.5,17.1,57,48,37,0.00,40.00,0,-999,0,0.00
2013-11-28,39.1,30.2,21.4,25.0,18.8,11.6,65,60,55,0.00,40.00,0,-999,0,0.00
2013-11-29,55.7,41.1,32.6,33.2,25.2,19.9,63,54,39,0.00,40.00,0,-999,0,0.00
2013-11-30,50.0,40.6,33.6,31.4,25.7,19.6,61,55,48,0.00,40.00,0,-999,0,0.00
2013-12-1,46.6,42.2,36.9,29.6,27.1,23.1,59,55,51,0.00,40.00,0,-999,0,0.00
2013-12-2,45.1,36.5,22.6,36.9,30.4,18.6,94,79,54,0.00,40.00,0,-999,0,0.00
2013-12-3,22.7,15.4,9.3,18.5,9.1,2.3,84,73,68,0.00,40.00,0,-999,0,0.00
2013-12-4,14.1,7.0,0.2,6.7,-1.2,-9.1,70,65,61,0.00,40.00,0,-999,0,0.00
2013-12-5,1.9,-5.1,-10.1,-7.4,-14.1,-19.0,61,61,61,0.00,40.00,0,-999,0,0.00
2013-12-6,-3.3,-9.3,-13.5,-12.5,-18.2,-22.3,61,61,61,0.00,40.00,0,-999,0,0.00
2013-12-7,-7.4,-13.2,-17.3,-16.4,-21.9,-25.9,61,61,61,0.00,40.00,0,-999,0,0.00
2013-12-8,8.0,3.0,-14.2,-1.5,-6.4,-22.9,61,61,61,0.00,40.00,0,-999,0,0.00
2013-12-9,20.7,11.6,-1.7,10.8,1.7,-11.0,62,60,58,0.00,40.00,0,-999,0,0.00
2013-12-10,21.6,17.7,10.3,14.3,10.4,3.8,76,70,61,0.00,40.00,0,-999,0,0.00
2013-12-11,28.9,17.4,3.2,18.5,9.1,-3.1,75,66,59,0.00,40.00,0,-999,0,0.00
2013-12-12,39.9,32.3,24.6,23.7,19.4,14.7,63,57,51,0.00,40.00,0,-999,0,0.00
2013-12-13,41.2,35.2,29.3,29.5,23.8,18.5,65,61,58,0.00,40.00,0,-999,0,0.00
2013-12-14,41.0,34.5,25.3,27.2,23.1,16.8,68,62,57,0.00,40.00,0,-999,0,0.00
2013-12-15,48.8,39.1,31.7,29.6,24.8,20.7,64,56,44,0.00,40.00,0,-999,0,0.00
2013-12-16,48.9,39.1,31.2,29.6,23.8,18.5,64,54,47,0.00,40.00,0,-999,0,0.00
2013-12-17,47.3,37.6,24.8,29.3,23.8,16.7,71,57,48,0.00,40.00,0,-999,0,0.00
2013-12-18,44.2,38.0,27.3,29.0,25.5,22.1,99,62,48,0.00,40.00,0,-999,0,0.00
2013-12-19,27.2,9.6,0.3,24.1,5.8,-3.4,92,83,82,0.00,40.00,0,-999,0,0.00
2013-12-20,27.2,19.0,0.2,15.8,10.1,-3.5,82,65,57,0.00,40.00,0,-999,0,0.00
2013-12-21,32.9,25.6,15.9,23.8,17.6,9.9,78,69,62,0.00,40.00,0,-999,0,0.00
2013-12-22,16.7,10.5,-1.5,11.1,4.4,-9.0,87,74,66,0.00,40.00,0,-999,0,0.00
2013-12-23,34.5,32.2,18.6,24.9,23.2,12.2,75,68,67,0.00,40.00,0,-999,0,0.00
2013-12-24,42.6,37.0,31.7,28.1,22.5,17.6,66,55,53,0.00,40.00,0,-999,0,0.00
2013-12-25,60.0,31.6,23.9,20.8,17.5,12.4,59,54,51,29.92,40.00,10,-999,18,3.29
2013-12-26,42.1,36.1,29.8,25.3,20.6,15.6,56,53,50,0.00,40.00,0,-999,0,0.00
2013-12-27,48.5,41.7,34.5,29.4,24.9,20.1,56,51,47,0.00,40.00,0,-999,0,0.00
2013-12-28,42.5,25.6,13.8,25.6,9.7,-0.6,57,51,44,0.00,40.00,0,-999,0,0.00
2013-12-29,37.0,25.7,14.9,21.6,11.7,2.4,59,55,51,0.00,40.00,0,-999,0,0.00
2013-12-30,41.6,37.5,31.6,24.3,21.5,16.9,56,52,49,0.00,40.00,0,-999,0,0.00
2013-12-31,44.4,38.0,34.0,29.7,24.9,21.6,78,60,52,0.00,40.00,0,-999,0,0.00
2014-1-1,38.5,30.8,21.2,30.3,25.0,15.5,95,79,71,0.00,40.00,0,-999,0,0.00
2014-1-2,38.8,30.6,18.7,27.8,21.8,13.0,81,70,59,0.00,40.00,0,-999,0,0.00